Weather in South Alamyshik

Uzbekistan     40°45′19″N   72°36′38″E
temp.,
°C
wind,
m/s
gust,
m/s
humid.,
%
clouds,
%
prec.,
mm/h
press.,
hPa
HPBL,
m
15 april, thu
thu1523:00+17ese1145100 0.0 101211
02:00+15ese2353100 0.0 101127
05:00+14e2244100 0.0 101222
08:00+17ese223795 0.0 1013221
11:00+22wsw3335100 0.0 10131123
14:00+24wsw3329100 0.0 10121815
17:00+24sw3329100 0.0 10122091
20:00+20ssw223893 0.0 101316
16 april, fri
fri1623:00+17n1142100 0.0 101411
02:00+15ese2248100 0.0 101311
05:00+14ese22564 0.0 101513
08:00+18e22455 0.0 1016235
11:00+23nw22295 0.0 10151333
14:00+25w342580 0.0 10132046
17:00+24w4527100 0.0 10132290
20:00+20sw223445 0.0 101518
17 april, sat
sat1723:00+17sse11400 0.0 101511
02:00+16ese22485 0.0 101513
05:00+14ese22535 0.0 101516
08:00+19e224036 0.0 1016225
11:00+23wnw332418 0.0 10151481
14:00+25wsw232150 0.0 10132395
17:00+25wsw341765 0.0 10122526
20:00+20s112385 0.0 101411
18 april, sun
sun1823:00+18sw1130100 0.0 101515
02:00+17wsw0129100 0.0 101518
05:00+16se2236100 0.0 101621
08:00+19nw1432100 0.0 1018517
11:00+22wsw6722100 0.0 10173025
14:00+23sw782186 0.0 10173033
17:00+22wsw782499 0.0 10172359
20:00+18ssw483184 0.0 1018158
19 april, mon
mon1923:00+15ese33415 0.0 101839
02:00+13e3448100 0.0 101744
05:00+12e3350100 0.0 101845
08:00+17e343964 0.0 1018277
11:00+22ese1126100 0.0 10151510
14:00+23w3320100 0.0 10142121
17:00+23sw131984 0.0 10131830
20:00+17e2227100 0.0 101311